When you browse on this site, cookies collect data to enhance your experience and personalize the content and advertising you see.
Visit our Privacy Policy to learn more. By continuing to use the site, you agree to this use of cookies and data.
  • In Norway
  • List of Countries
  • For 7 days
  • Water Temperature
  • Satellite Maps
  • Weather Map
  • Weather Widgets
  • user-avatar
    Login

    Hourly Weather Eisenstadt

    Today, 20 June, Thursday

    Time Temperature Precipitation Wind Pressure Humidity
    00:00 +18°C° 0 mm 1 mps 720 mmHg 78%
    01:00 +18°C° 0 mm 1 mps 719 mmHg 78%
    02:00 +16°C° 0 mm 1 mps 719 mmHg 79%
    03:00 +16°C° 0 mm 1 mps 719 mmHg 79%
    04:00 +16°C° 0 mm 1 mps 719 mmHg 80%
    05:00 +19°C° 0 mm 1 mps 719 mmHg 77%
    06:00 +20°C° 0 mm 1 mps 720 mmHg 74%
    07:00 +22°C° 0 mm 1 mps 720 mmHg 72%
    08:00 +24°C° 0 mm 1 mps 720 mmHg 66%
    09:00 +25°C° 0 mm 1 mps 720 mmHg 61%
    10:00 +27°C° 0 mm 1 mps 720 mmHg 55%
    11:00 +28°C° 0 mm 1 mps 720 mmHg 52%
    12:00 +29°C° 0 mm 1 mps 720 mmHg 49%
    13:00 +29°C° 0 mm 2 mps 720 mmHg 46%
    14:00 +29°C° 0.4 mm 2 mps 720 mmHg 50%
    15:00 +28°C° 0.4 mm 1 mps 719 mmHg 54%
    16:00 +28°C° 0.4 mm 1 mps 719 mmHg 59%
    17:00 +27°C° 0.7 mm 1 mps 719 mmHg 64%
    18:00 +25°C° 0.7 mm 1 mps 720 mmHg 70%
    19:00 +24°C° 0.7 mm 1 mps 720 mmHg 76%
    20:00 +21°C° 2.5 mm 2 mps 720 mmHg 81%
    21:00 +19°C° 2.5 mm 3 mps 720 mmHg 86%
    22:00 +17°C° 2.5 mm 3 mps 720 mmHg 92%
    23:00 +17°C° 1.2 mm 3 mps 721 mmHg 91%

    Tomorrow, 21 June, Friday

    Time Temperature Precipitation Wind Pressure Humidity
    00:00 +17°C° 1.2 mm 2 mps 721 mmHg 90%
    01:00 +17°C° 1.2 mm 2 mps 721 mmHg 88%
    02:00 +17°C° 0.1 mm 2 mps 721 mmHg 88%
    03:00 +17°C° 0.1 mm 2 mps 721 mmHg 87%
    04:00 +17°C° 0.1 mm 2 mps 721 mmHg 87%
    05:00 +19°C° 0 mm 1 mps 722 mmHg 84%
    06:00 +20°C° 0 mm 1 mps 722 mmHg 82%
    07:00 +21°C° 0 mm 1 mps 722 mmHg 80%
    08:00 +22°C° 0.3 mm 1 mps 723 mmHg 76%
    09:00 +24°C° 0.3 mm 2 mps 723 mmHg 71%
    10:00 +25°C° 0.3 mm 2 mps 723 mmHg 66%
    11:00 +26°C° 0.8 mm 2 mps 723 mmHg 64%
    12:00 +26°C° 0.8 mm 2 mps 723 mmHg 62%
    13:00 +27°C° 0.8 mm 1 mps 722 mmHg 61%
    14:00 +26°C° 0.6 mm 1 mps 722 mmHg 64%
    15:00 +26°C° 0.6 mm 1 mps 722 mmHg 68%
    16:00 +25°C° 0.6 mm 1 mps 722 mmHg 71%
    17:00 +24°C° 0.2 mm 1 mps 722 mmHg 74%
    18:00 +23°C° 0.2 mm 1 mps 722 mmHg 76%
    19:00 +23°C° 0.2 mm 1 mps 722 mmHg 79%
    20:00 +22°C° 0.7 mm 1 mps 722 mmHg 81%
    21:00 +21°C° 0.7 mm 1 mps 722 mmHg 84%
    22:00 +20°C° 0.7 mm 1 mps 722 mmHg 86%
    23:00 +19°C° 0.7 mm 1 mps 722 mmHg 87%

    Day after tomorrow, 22 June, Saturday

    Time Temperature Precipitation Wind Pressure Humidity
    00:00 +19°C° 0.7 mm 1 mps 722 mmHg 87%
    01:00 +19°C° 0.7 mm 1 mps 722 mmHg 88%
    02:00 +18°C° 0.2 mm 2 mps 722 mmHg 88%
    03:00 +18°C° 0.2 mm 2 mps 722 mmHg 89%
    04:00 +18°C° 0.2 mm 2 mps 722 mmHg 89%
    05:00 +19°C° 0.2 mm 2 mps 722 mmHg 88%
    06:00 +19°C° 0.2 mm 2 mps 723 mmHg 87%
    07:00 +20°C° 0.2 mm 2 mps 723 mmHg 86%
    08:00 +21°C° 0.6 mm 2 mps 723 mmHg 83%
    09:00 +23°C° 0.6 mm 2 mps 723 mmHg 79%
    10:00 +24°C° 0.6 mm 2 mps 723 mmHg 76%
    11:00 +25°C° 1 mm 2 mps 722 mmHg 72%
    12:00 +25°C° 1 mm 2 mps 722 mmHg 68%
    13:00 +26°C° 1 mm 2 mps 722 mmHg 63%
    14:00 +26°C° 0.4 mm 1 mps 722 mmHg 64%
    15:00 +26°C° 0.4 mm 1 mps 721 mmHg 64%
    16:00 +26°C° 0.4 mm 1 mps 721 mmHg 65%
    17:00 +25°C° 1.3 mm 1 mps 721 mmHg 71%
    18:00 +23°C° 1.3 mm 1 mps 721 mmHg 78%
    19:00 +22°C° 1.3 mm 1 mps 720 mmHg 85%
    20:00 +21°C° 1.3 mm 1 mps 721 mmHg 87%
    21:00 +20°C° 1.3 mm 1 mps 721 mmHg 89%
    22:00 +20°C° 1.3 mm 1 mps 721 mmHg 92%
    23:00 +19°C° 0.4 mm 1 mps 721 mmHg 92%

    23 June, Sunday

    Time Temperature Precipitation Wind Pressure Humidity
    00:00 +18°C° 0.4 mm 2 mps 721 mmHg 93%
    01:00 +17°C° 0.4 mm 2 mps 721 mmHg 93%
    02:00 +17°C° 0.6 mm 2 mps 721 mmHg 94%
    03:00 +17°C° 0.6 mm 2 mps 721 mmHg 94%
    04:00 +17°C° 0.6 mm 3 mps 721 mmHg 95%
    05:00 +18°C° 0.2 mm 3 mps 721 mmHg 93%
    06:00 +19°C° 0.2 mm 4 mps 722 mmHg 91%
    07:00 +19°C° 0.2 mm 4 mps 722 mmHg 88%
    08:00 +20°C° 0.3 mm 5 mps 722 mmHg 85%
    09:00 +20°C° 0.3 mm 5 mps 723 mmHg 82%
    10:00 +21°C° 0.3 mm 6 mps 723 mmHg 79%
    11:00 +21°C° 0.1 mm 6 mps 723 mmHg 76%
    12:00 +22°C° 0.1 mm 6 mps 723 mmHg 72%
    13:00 +23°C° 0.1 mm 6 mps 723 mmHg 68%
    14:00 +23°C° 0 mm 6 mps 723 mmHg 69%
    15:00 +23°C° 0 mm 6 mps 723 mmHg 69%
    16:00 +22°C° 0 mm 7 mps 723 mmHg 70%
    17:00 +22°C° 0 mm 6 mps 723 mmHg 73%
    18:00 +21°C° 0 mm 6 mps 724 mmHg 77%
    19:00 +20°C° 0 mm 5 mps 724 mmHg 80%
    20:00 +19°C° 0 mm 5 mps 724 mmHg 80%
    21:00 +19°C° 0 mm 5 mps 725 mmHg 81%
    22:00 +17°C° 0 mm 5 mps 725 mmHg 81%
    23:00 +17°C° 0 mm 5 mps 725 mmHg 81%

    24 June, Monday

    Time Temperature Precipitation Wind Pressure Humidity
    00:00 +16°C° 0 mm 5 mps 725 mmHg 81%
    01:00 +17°C° 0 mm 4 mps 726 mmHg 81%
    02:00 +15°C° 0 mm 4 mps 725 mmHg 82%
    03:00 +15°C° 0 mm 4 mps 725 mmHg 84%
    04:00 +16°C° 0 mm 3 mps 725 mmHg 85%
    05:00 +17°C° 0 mm 4 mps 726 mmHg 82%
    06:00 +18°C° 0 mm 4 mps 726 mmHg 79%
    07:00 +20°C° 0 mm 5 mps 726 mmHg 75%
    08:00 +21°C° 0 mm 5 mps 727 mmHg 72%
    09:00 +22°C° 0 mm 5 mps 727 mmHg 68%
    10:00 +23°C° 0 mm 6 mps 727 mmHg 65%
    11:00 +24°C° 0 mm 6 mps 727 mmHg 63%
    12:00 +26°C° 0 mm 5 mps 727 mmHg 61%
    13:00 +26°C° 0 mm 5 mps 727 mmHg 60%
    14:00 +26°C° 0 mm 5 mps 727 mmHg 60%
    15:00 +26°C° 0 mm 5 mps 727 mmHg 61%
    16:00 +26°C° 0 mm 5 mps 726 mmHg 62%
    17:00 +25°C° 0 mm 5 mps 727 mmHg 67%
    18:00 +23°C° 0 mm 4 mps 727 mmHg 73%
    19:00 +22°C° 0 mm 4 mps 727 mmHg 78%
    20:00 +21°C° 0 mm 4 mps 727 mmHg 79%
    21:00 +20°C° 0 mm 4 mps 728 mmHg 80%
    22:00 +19°C° 0 mm 4 mps 728 mmHg 81%
    23:00 +19°C° 0 mm 3 mps 728 mmHg 83%

    25 June, Tuesday

    Time Temperature Precipitation Wind Pressure Humidity
    00:00 +19°C° 0 mm 3 mps 728 mmHg 84%
    01:00 +18°C° 0 mm 3 mps 728 mmHg 85%
    02:00 +18°C° 0 mm 3 mps 728 mmHg 86%
    03:00 +18°C° 0 mm 3 mps 728 mmHg 87%
    04:00 +17°C° 0 mm 3 mps 728 mmHg 88%
    05:00 +19°C° 0 mm 3 mps 728 mmHg 84%
    06:00 +20°C° 0 mm 3 mps 728 mmHg 79%
    07:00 +22°C° 0 mm 3 mps 729 mmHg 75%
    08:00 +24°C° 0 mm 3 mps 729 mmHg 70%
    09:00 +25°C° 0 mm 3 mps 729 mmHg 64%
    10:00 +27°C° 0 mm 4 mps 729 mmHg 59%
    11:00 +27°C° 0 mm 4 mps 729 mmHg 56%
    12:00 +28°C° 0 mm 4 mps 729 mmHg 53%
    13:00 +29°C° 0 mm 4 mps 729 mmHg 50%
    14:00 +29°C° 0 mm 4 mps 729 mmHg 50%
    15:00 +28°C° 0 mm 4 mps 729 mmHg 51%
    16:00 +28°C° 0 mm 5 mps 728 mmHg 52%
    17:00 +27°C° 0 mm 4 mps 728 mmHg 58%
    18:00 +25°C° 0 mm 4 mps 728 mmHg 65%
    19:00 +24°C° 0 mm 3 mps 728 mmHg 72%
    20:00 +22°C° 0 mm 3 mps 729 mmHg 74%
    21:00 +20°C° 0 mm 3 mps 729 mmHg 75%
    22:00 +19°C° 0 mm 3 mps 729 mmHg 76%
    23:00 +19°C° 0 mm 3 mps 729 mmHg 76%
    Show more